STARLINK-1271 (45217 NORAD) Tracking and Keplerian Element Data

This shows tracking and keplerian element data for the satellite.

Feedback or suggestion? Click here.




ElementValue
Catalog45217
NameSTARLINK-1271
Epoch Orbit2171
Epoch Day187.50002315
Epoch Year2020
RAAN333.5227
Inclination53.0006
Eccentricity0.0001547
Argument of Perigee114.3726
Mean Anonmoly344.3262
Mean Motion15.05592049
Decay Rate-0.00021291
L11 45217U 20012AR 20187.50002315 -.00021291 00000-0 -14460-2 0 9992
L22 45217 53.0006 333.5227 0001547 114.3726 344.3262 15.05592049 21716

Live tracking and technical data element details for STARLINK-1271 (NORAD 45217). STARLINK-1271 can be tracked NOW for your location showing map with azimuth and elevation plus other details from your city location.

Track the satellite on the map from your city or location and see movement details for azimuth, elevation, latitude, longitude, range, height, and movement on the map or in text.







IsCatalogInMostPopularTable: catalog: 45217, numindb: 28
Update: records affected: 1



GetName: 45217 STARLINK-1271

Hit Count: updated at: Mon, 06 Jul 2020 04:57:12 GMT